Погода в Красноярском

Россия / Курганская область     55°20′04″N   62°27′47″E
темп.,
°C
ветер,
м/с
пор.,
м/с
влажн.,
%
обл.,
%
осадки,
мм/ч
давл.,
гПа
погр.,
м
12 мая, ср
ср1223:00+15юз113311 0.0 102711
02:00+13зюз22405 0.0 102713
05:00+12з33455 0.0 102825
08:00+17зсз344028 0.0 1028240
11:00+22ссз44435 0.0 1028959
14:00+24ссз56375 0.0 10272359
17:00+25ссз46335 0.0 10262428
20:00+20ссв3643100 0.0 1026112
13 мая, чт
чт1323:00+16всв33576 0.0 102723
02:00+15ю1162100 0.0 102711
05:00+14зсз226638 0.0 102711
08:00+19сз23507 0.0 1027258
11:00+23сз443698 0.0 10271343
14:00+25сз45338 0.0 10261854
17:00+26ссз46295 0.0 10252138
20:00+22с22425 0.0 102511
14 мая, пт
пт1423:00+18с11475 0.0 102611
02:00+17с114945 0.0 102611
05:00+15зюз115520 0.0 102711
08:00+21ююз224439 0.0 1028185
11:00+26юз33315 0.0 10271206
14:00+28зюз35275 0.0 10252629
17:00+29зюз46275 0.0 10242949
20:00+25зюз333961 0.0 102330
15 мая, сб
сб1523:00+22зсз354114 0.0 102477
02:00+19сз334717 0.0 102330
05:00+17сз3459100 0.1 102462
08:00+21зсз344994 0.1 1025241
11:00+26зсз34355 0.1 10241227
14:00+29з452913 0.0 10222139
17:00+29з452742 0.0 10212694
20:00+24зсз334214 0.0 102041
16 мая, вс
вс1623:00+20зсз35485 0.0 102053
02:00+18зсз47524 0.0 1021112
05:00+17зсз36570 0.0 102176
08:00+22зсз46465 0.0 1021289
11:00+27зсз34325 0.0 10211093
14:00+30зсз34255 0.0 10202090
17:00+30з34223 0.0 10192753
20:00+26юз22330 0.0 101911